Temperature
16 16 16 16 16 16 16 16 16 15 14 15 14 14 14 14 14 14 14 14 14 14 13 13 13 13 13 13 13 13 13 13 13 13 13 12 12 12
16 16 16 16 16 16 16 16 15 15 15 14 14 14 14 14 13 13 13 13 13 13 13 13 13 13 13 12 12 12 12 12 12 12 12 12 12 12
16 16 16 16 16 16 15 15 15 15 15 14 14 13 13 13 13 13 12 12 12 12 12 12 12 12 12 12 12 12 12 12 11 11 11 11 11 11
16 16 15 15 15 15 15 15 15 15 15 14 13 13 13 13 12 12 12 12 12 12 11 11 11 11 11 11 11 11 11 11 11 11 11 10 10 10
15 15 15 15 15 15 15 14 14 14 14 14 13 12 12 12 12 12 11 11 11 11 11 11 11 11 11 10 10 10 10 10 10 10 10 10 10 10
15 15 14 14 14 14 14 14 14 14 14 13 13 12 12 11 11 11 11 11 11 11 10 10 10 10 10 10 10 10 10 10 10 9 9 9 9 9
14 14 14 14 14 14 14 14 13 13 13 13 12 12 11 11 11 11 10 10 10 10 10 10 10 10 10 10 9 9 9 9 9 9 9 9 8 8
14 14 14 14 13 13 13 13 13 13 13 12 12 11 11 11 11 10 10 10 10 10 10 10 10 9 9 9 9 9 9 8 8 8 8 8 8 8
14 14 13 13 13 13 12 12 12 12 12 12 12 11 11 11 10 10 10 10 10 10 9 9 9 9 9 9 9 9 8 8 8 8 8 7 7 7
13 13 13 13 12 12 12 12 12 11 11 11 11 11 11 10 10 10 10 10 9 9 9 9 9 9 9 9 8 8 8 8 8 8 7 7 7 7
13 12 12 12 12 12 12 12 11 11 11 11 10 10 10 10 10 10 10 10 9 9 9 9 9 9 8 8 8 8 8 8 8 7 7 7 7 7
12 12 12 12 11 11 11 11 11 11 10 10 10 10 10 10 10 10 9 9 9 9 9 8 8 8 8 8 8 8 8 8 7 7 7 7 7 7
12 12 11 11 11 11 11 11 10 10 10 10 10 10 10 9 9 9 9 9 9 9 9 8 8 8 8 8 8 8 8 8 7 7 7 7 7 7
12 11 11 11 11 10 10 10 10 10 10 10 9 9 9 9 9 9 9 9 9 8 8 8 8 8 8 8 8 8 8 7 7 7 7 7 7 7
11 11 11 10 10 10 10 10 10 10 10 9 9 9 9 9 9 9 9 9 8 8 8 8 8 8 8 8 8 8 8 7 7 7 7 7 7 7
11 10 10 10 10 10 10 10 10 9 9 9 9 9 9 9 9 9 8 8 8 8 8 8 8 8 8 8 8 8 7 7 7 7 7 7 7 6
10 10 10 10 10 10 10 10 9 9 9 9 9 9 9 9 8 8 8 8 8 8 8 8 8 8 7 7 7 7 7 7 7 7 7 7 7 6
10 10 10 10 10 10 10 9 9 9 9 9 9 9 9 8 8 8 8 8 8 8 8 8 8 7 7 7 7 7 7 7 7 7 7 7 7 6
10 10 10 10 10 10 9 9 9 9 9 9 8 8 8 8 8 8 8 8 8 8 7 7 7 7 7 7 7 7 7 7 7 7 7 7 6 6
10 10 10 10 10 9 9 9 9 9 9 9 8 8 8 8 8 8 8 8 8 8 7 7 7 7 7 7 7 7 7 7 7 7 7 6 6 6
10 10 10 10 9 9 9 9 9 9 9 8 8 8 8 8 8 8 8 8 7 7 7 7 7 7 7 7 7 7 7 7 7 6 6 6 6 6
10 10 10 10 9 9 9 9 9 8 8 8 8 8 8 8 8 7 7 7 7 7 7 7 7 7 7 6 6 6 6 6 6 6 6 6 6 6
10 10 10 10 9 9 9 9 8 8 8 8 8 8 8 7 7 7 7 7 7 7 7 7 7 6 6 6 6 6 6 6 6 6 6 6 6 6
Wind_Speed
1 1 0 1 0 1 3 4 4 2 1 1 1 1 4 6 7 8 8 8 9 10 9 9 9 9 9 9 8 8 8 8 8 8 8 7 6 6
1 2 2 1 1 0 1 2 2 3 2 0 0 1 4 6 7 8 9 10 10 10 9 9 9 9 9 9 9 9 9 9 9 9 8 8 8 7
3 3 2 2 1 1 1 1 2 3 3 1 2 2 3 5 6 8 9 8 8 9 9 10 10 9 9 9 9 9 9 9 9 9 9 9 8 8
3 3 3 2 3 2 2 2 2 2 4 4 2 2 3 4 5 5 6 7 7 8 8 8 9 8 8 8 8 8 8 8 9 9 9 8 8 8
3 3 3 3 3 3 3 3 2 3 3 5 3 2 2 3 4 4 4 4 5 6 6 7 7 7 7 7 7 7 8 8 8 8 8 8 8 8
4 4 4 4 3 3 3 3 4 4 4 5 4 3 2 2 3 3 2 1 1 3 4 4 5 5 5 5 6 6 6 6 6 7 7 8 8 7
5 5 5 7 6 4 4 3 4 4 4 4 3 3 2 2 2 2 3 1 1 1 1 1 2 2 2 2 3 3 4 5 5 5 5 5 6 6
4 4 5 7 8 8 7 7 6 5 4 4 3 3 2 1 2 3 3 2 0 1 1 0 1 0 1 1 1 2 2 2 3 3 3 3 4 4
4 3 4 4 5 5 7 8 7 6 6 5 4 3 3 2 3 2 2 2 2 2 2 0 1 1 3 2 2 2 2 2 1 1 1 1 1 1
4 4 4 4 4 5 5 5 5 4 3 3 3 2 2 3 3 3 3 2 2 1 2 1 1 1 2 4 5 5 4 3 2 2 2 3 2 2
4 5 5 4 5 7 6 5 5 4 6 7 5 5 5 5 5 4 3 3 1 1 1 1 1 1 1 2 5 7 7 6 6 5 5 5 5 4
3 4 5 5 5 6 5 4 4 2 3 4 5 5 5 5 5 4 4 3 2 1 1 1 0 1 1 2 3 4 6 7 7 7 7 6 5 4
2 1 1 3 4 4 4 3 2 2 2 3 3 3 3 2 2 2 3 3 3 2 3 2 1 1 1 1 2 3 4 5 5 6 7 7 6 6
2 1 0 2 3 4 2 2 3 4 3 3 2 1 1 1 1 1 1 2 2 3 4 4 2 2 2 0 2 2 3 5 5 5 7 7 7 7
2 2 1 2 3 2 3 3 3 3 3 2 1 1 1 1 0 1 2 2 2 2 1 3 3 2 3 2 2 2 2 2 4 3 4 4 5 5
1 1 1 2 3 2 2 2 2 2 2 2 2 1 1 1 1 0 1 1 2 3 4 2 2 3 2 1 2 2 2 2 2 3 3 3 6 7
2 2 2 2 1 1 1 1 1 1 1 1 1 0 0 0 1 1 1 1 1 1 3 3 3 1 2 2 1 2 2 2 3 2 1 2 4 7
4 2 1 1 1 2 1 1 1 1 1 1 1 1 1 1 1 1 0 1 1 1 2 2 1 2 3 2 3 3 2 3 3 2 2 2 4 5
3 2 2 2 2 2 2 2 2 2 1 1 1 1 1 1 1 0 0 1 1 1 2 1 0 1 0 3 5 4 3 3 2 2 3 3 4 5
2 3 3 3 3 3 3 3 2 1 1 1 1 1 1 1 1 1 1 2 2 2 2 1 1 2 4 4 3 4 6 4 3 3 3 3 3 6
3 3 4 4 3 3 3 3 3 2 2 2 1 1 1 1 1 2 2 2 1 1 2 3 4 4 2 1 1 4 5 8 6 4 3 2 3 3
4 4 4 4 3 3 3 3 2 2 2 2 2 2 2 2 2 2 2 2 2 2 3 3 3 1 1 1 3 4 4 5 8 8 6 6 4 4
5 4 4 3 3 3 3 3 4 3 3 3 2 2 2 2 2 2 2 2 2 2 2 2 2 1 2 2 3 3 5 5 3 3 5 10 10 11
Wind_Direction
31 55 74 300 226 178 169 167 166 183 247 267 30 54 102 105 112 108 99 96 98 94 91 89 87 83 78 77 75 71 69 67 65 62 60 58 59 55
39 48 32 348 358 70 161 166 161 169 186 195 130 122 110 103 98 97 98 94 94 97 97 95 90 85 80 76 73 69 67 66 64 63 64 62 58 57
24 36 15 13 30 25 65 100 122 137 151 128 74 96 95 103 103 97 94 95 93 96 98 96 92 89 83 78 75 72 70 67 64 62 63 64 61 61
30 33 13 30 40 35 63 82 100 121 140 134 99 87 90 118 118 111 102 98 100 97 99 97 95 94 90 85 80 76 74 71 67 63 62 62 63 63
53 49 28 47 46 46 65 78 86 96 113 129 120 103 97 119 109 104 102 92 100 103 102 100 98 95 90 88 85 81 78 76 72 69 66 64 64 63
61 59 57 65 66 66 76 79 94 96 101 113 116 111 107 117 116 118 102 69 91 98 98 98 97 91 87 88 90 88 85 82 79 75 70 66 64 64
58 54 64 73 74 79 94 102 106 108 109 114 120 110 106 118 139 151 132 111 39 84 82 66 82 74 76 90 106 112 107 98 89 83 79 73 68 62
71 59 66 64 67 69 81 92 109 123 130 128 131 134 154 151 146 147 138 124 191 266 124 340 112 13 269 188 167 154 154 147 130 113 99 87 74 63
84 76 76 67 68 70 69 66 68 89 116 137 138 157 164 181 154 141 148 154 192 204 129 274 302 269 256 247 240 230 225 215 195 165 156 162 108 69
81 87 86 66 69 86 81 65 53 49 71 103 136 159 160 164 163 159 149 122 59 57 116 145 267 260 265 254 252 247 246 244 246 256 275 278 274 272
72 77 88 81 73 89 89 78 55 31 54 77 91 97 104 118 128 113 107 110 83 314 11 123 249 290 302 292 266 253 252 258 266 268 272 275 272 274
68 62 75 86 80 89 100 99 85 42 55 61 58 58 65 77 102 127 146 140 140 238 259 133 19 65 331 296 286 266 261 266 267 269 271 272 267 260
109 78 38 77 84 88 102 119 144 142 104 88 69 44 31 33 46 101 150 151 157 209 218 161 154 137 172 279 299 270 251 255 268 273 272 274 269 245
144 168 191 85 79 76 81 89 101 103 101 84 71 41 15 345 331 329 162 182 195 212 216 176 169 180 164 210 284 292 270 259 252 262 273 277 276 262
163 173 143 87 64 53 47 77 97 104 107 106 118 255 262 254 307 20 31 44 33 0 305 205 178 170 159 183 232 263 280 284 254 250 263 261 258 253
86 63 68 62 53 31 29 56 80 130 146 162 202 249 313 23 18 40 61 43 31 342 338 332 198 162 171 195 191 234 236 252 268 260 255 266 269 258
122 72 57 52 43 29 16 10 33 73 116 146 150 127 82 89 298 314 95 94 98 298 318 333 357 33 199 182 205 248 250 261 259 252 250 275 272 267
122 115 157 186 187 191 196 241 263 230 219 193 180 172 178 209 257 295 94 138 181 257 270 285 350 13 4 325 222 214 247 254 263 257 227 239 272 277
136 177 202 208 207 205 201 202 221 229 211 192 200 209 198 195 196 224 195 167 221 251 263 254 168 123 2 297 294 248 210 248 264 262 249 229 243 264
188 197 204 207 206 203 201 201 211 209 191 198 218 224 196 180 195 222 214 206 219 239 276 281 231 207 206 227 249 275 263 227 231 246 256 263 267 281
210 209 207 205 208 204 199 195 191 194 190 183 198 212 205 191 212 232 233 242 218 217 239 254 255 254 216 114 324 298 285 274 254 229 234 255 288 308
212 213 214 208 203 198 191 186 190 199 198 199 213 223 220 205 216 229 225 225 228 228 241 260 278 307 130 212 259 275 288 300 301 295 266 232 201 224
212 212 212 211 201 190 188 188 189 199 201 203 209 221 221 221 231 229 227 222 225 245 255 270 293 291 252 241 252 266 278 287 295 310 302 294 272 260
Height
1548 1548 1548 1548 1548 1548 1548 1549 1549 1549 1549 1550 1550 1551 1550 1550 1550 1550 1550 1549 1548 1548 1548 1548 1547 1547 1546 1546 1545 1544 1543 1543 1542 1541 1540 1540 1539 1539
1547 1546 1546 1546 1546 1546 1546 1546 1547 1547 1547 1547 1548 1549 1549 1548 1548 1548 1548 1548 1547 1547 1547 1546 1546 1545 1544 1544 1543 1542 1541 1540 1539 1539 1538 1537 1537 1536
1545 1545 1545 1544 1544 1544 1544 1544 1544 1545 1545 1546 1546 1547 1547 1547 1547 1547 1547 1547 1546 1546 1546 1545 1545 1544 1543 1542 1542 1541 1540 1539 1538 1537 1536 1535 1534 1534
1544 1544 1544 1544 1543 1543 1543 1543 1543 1543 1543 1544 1544 1545 1545 1546 1546 1546 1546 1546 1546 1545 1545 1545 1544 1543 1542 1542 1541 1540 1539 1538 1537 1536 1535 1534 1533 1532
1544 1543 1543 1543 1543 1542 1542 1542 1542 1542 1542 1542 1543 1544 1545 1545 1545 1546 1546 1545 1545 1545 1545 1544 1544 1543 1542 1541 1540 1539 1538 1537 1536 1535 1534 1533 1532 1531
1544 1543 1543 1543 1542 1542 1542 1541 1541 1541 1542 1542 1542 1543 1544 1544 1545 1545 1545 1545 1545 1545 1545 1544 1544 1543 1542 1541 1540 1539 1538 1537 1536 1535 1534 1532 1531 1531
1544 1543 1543 1543 1542 1542 1541 1541 1541 1541 1541 1541 1542 1543 1543 1543 1544 1544 1544 1545 1545 1545 1545 1544 1544 1543 1542 1541 1540 1539 1538 1537 1536 1535 1534 1533 1531 1530
1544 1543 1543 1543 1542 1542 1541 1541 1541 1541 1541 1541 1541 1542 1542 1543 1543 1544 1544 1544 1544 1545 1544 1544 1544 1543 1542 1541 1540 1539 1538 1537 1536 1535 1534 1533 1531 1530
1544 1543 1543 1542 1542 1542 1541 1541 1541 1541 1541 1541 1541 1541 1542 1542 1543 1543 1543 1543 1543 1544 1544 1543 1543 1542 1542 1541 1540 1539 1538 1537 1536 1535 1534 1532 1531 1530
1544 1544 1543 1543 1542 1542 1542 1541 1541 1541 1541 1541 1541 1541 1542 1542 1542 1542 1542 1543 1543 1543 1543 1543 1542 1541 1541 1541 1540 1539 1538 1537 1536 1535 1534 1532 1531 1530
1544 1544 1544 1543 1543 1543 1542 1542 1541 1542 1542 1542 1542 1542 1542 1542 1542 1542 1542 1542 1542 1542 1542 1542 1541 1541 1541 1540 1540 1539 1538 1537 1536 1535 1533 1532 1531 1530
1544 1544 1544 1544 1543 1543 1543 1542 1542 1542 1542 1542 1542 1542 1542 1542 1542 1542 1541 1541 1541 1541 1541 1541 1540 1540 1539 1539 1539 1538 1537 1536 1535 1534 1533 1532 1530 1529
1544 1544 1544 1544 1544 1544 1544 1543 1543 1543 1543 1542 1542 1542 1542 1542 1541 1541 1541 1541 1540 1540 1540 1539 1539 1539 1538 1538 1538 1537 1536 1535 1534 1533 1532 1531 1530 1528
1544 1545 1545 1545 1544 1544 1544 1544 1544 1544 1543 1543 1543 1542 1542 1542 1542 1541 1541 1540 1540 1540 1539 1539 1538 1538 1537 1537 1536 1536 1535 1534 1533 1532 1531 1530 1529 1528
1544 1545 1545 1545 1545 1545 1545 1544 1544 1544 1544 1544 1543 1543 1543 1542 1542 1541 1541 1540 1540 1539 1539 1538 1538 1537 1536 1535 1535 1534 1533 1533 1532 1531 1530 1529 1528 1527
1544 1544 1545 1545 1545 1545 1545 1545 1544 1544 1544 1543 1543 1543 1543 1542 1542 1541 1541 1540 1539 1539 1538 1538 1537 1536 1535 1534 1534 1533 1532 1531 1530 1529 1528 1527 1526 1525
1544 1544 1544 1545 1545 1544 1545 1544 1544 1544 1543 1543 1543 1543 1542 1542 1542 1541 1540 1539 1539 1538 1538 1537 1536 1535 1534 1534 1532 1531 1530 1530 1529 1528 1526 1525 1524 1523
1543 1543 1544 1544 1544 1543 1543 1543 1543 1543 1543 1543 1542 1542 1541 1541 1541 1540 1540 1539 1538 1538 1537 1536 1535 1534 1533 1532 1532 1530 1529 1527 1527 1525 1524 1522 1521 1521
1542 1542 1542 1542 1542 1542 1542 1542 1542 1542 1542 1542 1541 1541 1540 1540 1540 1539 1538 1538 1537 1536 1536 1535 1534 1533 1531 1530 1529 1529 1527 1525 1524 1523 1522 1520 1519 1518
1540 1540 1541 1541 1541 1541 1541 1541 1540 1540 1540 1540 1539 1539 1539 1538 1538 1537 1537 1536 1535 1535 1534 1533 1532 1531 1529 1528 1527 1526 1525 1523 1522 1520 1519 1517 1516 1515
1538 1538 1538 1539 1539 1539 1539 1538 1538 1538 1538 1538 1537 1537 1536 1536 1536 1535 1535 1534 1533 1532 1532 1531 1530 1529 1528 1526 1525 1523 1522 1521 1520 1518 1516 1514 1513 1511
1536 1536 1536 1536 1536 1536 1536 1536 1536 1535 1535 1535 1535 1534 1534 1533 1533 1532 1532 1531 1530 1530 1529 1528 1527 1526 1525 1524 1522 1520 1519 1518 1517 1515 1514 1512 1510 1508
1533 1533 1533 1533 1533 1533 1533 1533 1533 1532 1532 1532 1531 1531 1530 1530 1529 1529 1528 1528 1527 1526 1526 1525 1524 1523 1522 1520 1519 1517 1516 1514 1513 1511 1510 1509 1508 1506